Location: Unspecified
(0.0000°N, 0.0000°E)
Time: 17:17:35
(UTC+00:00)

Tiros 1 - Pass Details

Date: 27 May 2026
Orbit: 618 x 649 km, 48.4° (Epoch: 6 June)

Event Time Altitude Azimuth Distance (km) Brightness Sun altitude
Rises 15:42:43 0° 219° (SW) 2,951 10.7 31.0°
Reaches altitude 10° 15:45:03 10° 220° (SW) 2,042 10.0 30.5°
Maximum altitude 15:49:46 86° 306° (NW) 651 7.8 29.4°
Drops below altitude 10° 15:54:29 10° 38° (NE) 2,035 9.7 28.4°
Sets 15:56:48 0° 38° (NE) 2,940 10.4 27.8°
